| time (UTC) | temp F | wind direction | speed MPH | gust MPH | rain 1hr in | rain 24hr in | rain mn in | humidity % | barometer mb |
| 20260906031259 | 75 | 152 | 2.0 | 2.0 | 0.00 | 0.01 | 0.01 | 90 | 1015.2 |
| 20260906030758 | 76 | 147 | 0.0 | 0.0 | 0.00 | 0.01 | 0.01 | 85 | 1015.1 |
| 20260906030254 | 77 | 147 | 0.0 | 0.0 | 0.00 | 0.01 | 0.01 | 83 | 1015.2 |
| 20260906025753 | 76 | 135 | 0.0 | 0.0 | 0.00 | 0.01 | 0.01 | 84 | 1015.3 |
| 20260906025248 | 76 | 135 | 0.0 | 0.0 | 0.00 | 0.01 | 0.01 | 85 | 1015.5 |
| 20260906024747 | 76 | 132 | 0.0 | 0.0 | 0.00 | 0.01 | 0.01 | 84 | 1015.6 |
| 20260906024245 | 76 | 143 | 0.0 | 0.0 | 0.00 | 0.01 | 0.01 | 83 | 1015.5 |
| 20260906023741 | 76 | 143 | 0.0 | 0.0 | 0.00 | 0.01 | 0.01 | 83 | 1015.4 |
| 20260906023237 | 76 | 143 | 0.0 | 0.0 | 0.00 | 0.01 | 0.01 | 83 | 1015.4 |
| 20260906022732 | 76 | 143 | 0.0 | 0.0 | 0.00 | 0.01 | 0.01 | 84 | 1015.1 |
| 20260906022227 | 76 | 143 | 0.0 | 0.0 | 0.00 | 0.01 | 0.01 | 84 | 1015.3 |
| 20260906021723 | 77 | 143 | 0.0 | 0.0 | 0.00 | 0.01 | 0.01 | 84 | 1015.1 |
| 20260906021222 | 77 | 134 | 0.0 | 0.0 | 0.00 | 0.01 | 0.01 | 85 | 1014.8 |
| 20260906020717 | 76 | 134 | 0.0 | 0.0 | 0.00 | 0.01 | 0.01 | 85 | 1015.2 |
| 20260906020212 | 77 | 134 | 0.0 | 0.0 | 0.00 | 0.01 | 0.01 | 84 | 1014.9 |
| 20260906015706 | 76 | 126 | 0.0 | 1.0 | 0.00 | 0.01 | 0.01 | 84 | 1014.8 |
| 20260906015205 | 76 | 144 | 0.0 | 0.0 | 0.00 | 0.01 | 0.01 | 84 | 1014.8 |
| 20260906014705 | 76 | 144 | 0.0 | 0.0 | 0.00 | 0.01 | 0.01 | 84 | 1014.8 |
| 20260906014201 | 76 | 138 | 0.0 | 0.0 | 0.00 | 0.01 | 0.01 | 84 | 1015.0 |
| 20260906013657 | 76 | 138 | 0.0 | 0.0 | 0.00 | 0.01 | 0.01 | 83 | 1014.9 |
| 20260906013151 | 76 | 139 | 0.0 | 0.0 | 0.00 | 0.01 | 0.01 | 86 | 1014.9 |
| 20260906012651 | 76 | 138 | 0.0 | 0.0 | 0.00 | 0.01 | 0.01 | 86 | 1015.0 |
| 20260906012145 | 77 | 139 | 0.0 | 0.0 | 0.00 | 0.01 | 0.01 | 86 | 1014.5 |
| 20260906011642 | 77 | 167 | 0.0 | 0.0 | 0.00 | 0.01 | 0.01 | 84 | 1014.6 |
| 20260906011136 | 77 | 112 | 2.0 | 2.0 | 0.00 | 0.01 | 0.01 | 84 | 1014.7 |
| 20260906010626 | 77 | 135 | 0.0 | 0.0 | 0.00 | 0.01 | 0.01 | 83 | 1014.6 |
| 20260906010123 | 77 | 114 | 0.0 | 0.0 | 0.00 | 0.01 | 0.01 | 83 | 1014.5 |
| 20260906005622 | 77 | 152 | 0.0 | 0.0 | 0.00 | 0.01 | 0.01 | 87 | 1014.5 |
| 20260906005121 | 77 | 150 | 0.0 | 0.0 | 0.00 | 0.01 | 0.01 | 87 | 1014.7 |
| 20260906004620 | 77 | 133 | 0.0 | 0.0 | 0.00 | 0.01 | 0.01 | 88 | 1014.6 |
| 20260906004115 | 77 | 148 | 0.0 | 0.0 | 0.00 | 0.01 | 0.01 | 91 | 1014.6 |
| 20260906003610 | 77 | 141 | 0.0 | 0.0 | 0.00 | 0.01 | 0.01 | 90 | 1014.6 |
| 20260906003106 | 78 | 136 | 0.0 | 0.0 | 0.00 | 0.01 | 0.01 | 89 | 1014.7 |
| 20260906002601 | 79 | 137 | 0.0 | 0.0 | 0.00 | 0.01 | 0.01 | 88 | 1015.0 |
| 20260906002056 | 81 | 133 | 0.0 | 0.0 | 0.00 | 0.01 | 0.01 | 83 | 1014.9 |
| 20260906001551 | 82 | 52 | 3.0 | 3.0 | 0.00 | 0.01 | 0.01 | 77 | 1014.6 |
| 20260906001045 | 82 | 29 | 3.0 | 3.0 | 0.00 | 0.01 | 0.01 | 77 | 1014.6 |
| 20260906000541 | 83 | 169 | 0.0 | 0.0 | 0.00 | 0.01 | 0.01 | 77 | 1014.7 |
| 20260906000036 | 83 | 128 | 0.0 | 0.0 | 0.00 | 0.01 | 0.01 | 76 | 1014.5 |
| 20260905235530 | 83 | 128 | 0.0 | 0.0 | 0.00 | 0.01 | 0.01 | 75 | 1014.7 |
| 20260905235025 | 84 | 128 | 0.0 | 0.0 | 0.00 | 0.01 | 0.01 | 74 | 1014.8 |
| 20260905234520 | 84 | 128 | 0.0 | 0.0 | 0.00 | 0.01 | 0.01 | 73 | 1014.8 |
| 20260905234015 | 85 | 128 | 0.0 | 0.0 | 0.00 | 0.01 | 0.01 | 73 | 1014.7 |
| 20260905233510 | 86 | 161 | 0.0 | 0.0 | 0.00 | 0.01 | 0.01 | 71 | 1014.8 |
| 20260905233009 | 86 | 115 | 2.0 | 2.0 | 0.00 | 0.01 | 0.01 | 69 | 1014.6 |
| 20260905232505 | 87 | 133 | 0.0 | 1.0 | 0.00 | 0.01 | 0.01 | 69 | 1014.7 |
| 20260905232001 | 87 | 115 | 1.0 | 1.0 | 0.00 | 0.01 | 0.01 | 67 | 1014.8 |
| 20260905231456 | 87 | 199 | 1.0 | 1.0 | 0.00 | 0.01 | 0.01 | 69 | 1014.7 |
| 20260905230952 | 87 | 136 | 0.0 | 1.0 | 0.00 | 0.01 | 0.01 | 68 | 1014.8 |
| 20260905230450 | 87 | 146 | 1.0 | 1.0 | 0.00 | 0.01 | 0.01 | 68 | 1014.8 |
| 20260905225949 | 87 | 146 | 1.0 | 1.0 | 0.00 | 0.01 | 0.01 | 66 | 1014.7 |
| 20260905225444 | 88 | 136 | 0.0 | 0.0 | 0.00 | 0.01 | 0.01 | 66 | 1014.7 |
| 20260905224939 | 88 | 130 | 2.0 | 2.0 | 0.00 | 0.01 | 0.01 | 64 | 1014.7 |
| 20260905224435 | 88 | 113 | 1.0 | 1.0 | 0.00 | 0.01 | 0.01 | 63 | 1014.6 |
| 20260905223933 | 89 | 283 | 1.0 | 3.0 | 0.00 | 0.01 | 0.01 | 63 | 1014.6 |
| 20260905223432 | 90 | 127 | 1.0 | 2.0 | 0.00 | 0.01 | 0.01 | 62 | 1014.5 |
| 20260905222927 | 90 | 119 | 1.0 | 1.0 | 0.00 | 0.01 | 0.01 | 61 | 1014.5 |
| 20260905222426 | 90 | 145 | 0.0 | 1.0 | 0.00 | 0.01 | 0.01 | 61 | 1014.7 |
| 20260905221922 | 90 | 20 | 2.0 | 3.0 | 0.00 | 0.01 | 0.01 | 61 | 1014.4 |
| 20260905221419 | 91 | 129 | 1.0 | 1.0 | 0.00 | 0.01 | 0.01 | 61 | 1014.6 |
| 20260905220915 | 92 | 20 | 2.0 | 3.0 | 0.00 | 0.01 | 0.01 | 60 | 1014.6 |
| 20260905220410 | 92 | 187 | 1.0 | 1.0 | 0.00 | 0.01 | 0.01 | 60 | 1014.6 |
| 20260905215909 | 91 | 327 | 2.0 | 2.0 | 0.00 | 0.01 | 0.01 | 60 | 1014.5 |
| 20260905215405 | 91 | 45 | 3.0 | 3.0 | 0.00 | 0.01 | 0.01 | 60 | 1014.6 |
| 20260905214901 | 91 | 157 | 1.0 | 2.0 | 0.00 | 0.01 | 0.01 | 60 | 1014.3 |
| 20260905214357 | 91 | 185 | 3.0 | 3.0 | 0.00 | 0.01 | 0.01 | 60 | 1014.6 |
| 20260905213851 | 91 | 32 | 5.0 | 6.0 | 0.00 | 0.01 | 0.01 | 59 | 1014.6 |
| 20260905213348 | 92 | 292 | 3.0 | 3.0 | 0.00 | 0.01 | 0.01 | 61 | 1014.4 |
| 20260905212848 | 93 | 142 | 1.0 | 1.0 | 0.00 | 0.01 | 0.01 | 58 | 1014.6 |
| 20260905212342 | 93 | 146 | 2.0 | 2.0 | 0.00 | 0.01 | 0.01 | 59 | 1014.6 |
| 20260905211842 | 93 | 189 | 2.0 | 3.0 | 0.00 | 0.01 | 0.01 | 58 | 1014.7 |
| 20260905211338 | 91 | 307 | 2.0 | 3.0 | 0.00 | 0.01 | 0.01 | 61 | 1014.8 |
| 20260905210834 | 91 | 94 | 2.0 | 3.0 | 0.00 | 0.01 | 0.01 | 61 | 1014.7 |
| 20260905210334 | 90 | 96 | 1.0 | 2.0 | 0.00 | 0.01 | 0.01 | 63 | 1014.8 |
| 20260905205833 | 90 | 124 | 0.0 | 1.0 | 0.00 | 0.01 | 0.01 | 63 | 1014.8 |
| 20260905205327 | 88 | 158 | 2.0 | 2.0 | 0.00 | 0.01 | 0.01 | 67 | 1014.7 |
| 20260905204827 | 89 | 67 | 1.0 | 2.0 | 0.00 | 0.01 | 0.01 | 66 | 1014.9 |
| 20260905204323 | 90 | 79 | 0.0 | 1.0 | 0.00 | 0.01 | 0.01 | 64 | 1014.9 |
| 20260905203821 | 89 | 291 | 3.0 | 3.0 | 0.00 | 0.01 | 0.01 | 65 | 1015.0 |
| 20260905203318 | 89 | 291 | 1.0 | 2.0 | 0.00 | 0.01 | 0.01 | 65 | 1014.9 |
| 20260905202813 | 90 | 202 | 2.0 | 2.0 | 0.00 | 0.01 | 0.01 | 64 | 1014.9 |
| 20260905202308 | 90 | 333 | 4.0 | 5.0 | 0.00 | 0.01 | 0.01 | 63 | 1014.9 |
| 20260905201803 | 90 | 146 | 2.0 | 2.0 | 0.00 | 0.01 | 0.01 | 63 | 1014.7 |
| 20260905201259 | 91 | 1 | 3.0 | 5.0 | 0.00 | 0.01 | 0.01 | 63 | 1014.8 |
| 20260905200753 | 92 | 256 | 3.0 | 5.0 | 0.00 | 0.01 | 0.01 | 61 | 1014.8 |
| 20260905200249 | 93 | 118 | 2.0 | 2.0 | 0.00 | 0.01 | 0.01 | 61 | 1015.0 |
| 20260905195747 | 93 | 150 | 1.0 | 1.0 | 0.00 | 0.01 | 0.01 | 59 | 1015.1 |
| 20260905195242 | 93 | 80 | 2.0 | 2.0 | 0.00 | 0.01 | 0.01 | 59 | 1015.6 |
| 20260905194738 | 93 | 138 | 1.0 | 1.0 | 0.00 | 0.01 | 0.01 | 60 | 1015.5 |
| 20260905194237 | 92 | 117 | 0.0 | 1.0 | 0.00 | 0.01 | 0.01 | 62 | 1015.5 |
| 20260905193731 | 92 | 144 | 2.0 | 2.0 | 0.00 | 0.01 | 0.01 | 61 | 1015.7 |
| 20260905193226 | 92 | 182 | 2.0 | 3.0 | 0.00 | 0.01 | 0.01 | 60 | 1015.9 |
| 20260905192721 | 93 | 151 | 1.0 | 2.0 | 0.00 | 0.01 | 0.01 | 59 | 1015.7 |
| 20260905192218 | 92 | 97 | 1.0 | 2.0 | 0.00 | 0.01 | 0.01 | 65 | 1015.7 |
| 20260905191717 | 91 | 130 | 1.0 | 1.0 | 0.00 | 0.01 | 0.01 | 64 | 1015.7 |
| 20260905191215 | 91 | 147 | 0.0 | 0.0 | 0.00 | 0.01 | 0.01 | 62 | 1016.0 |
| 20260905190714 | 92 | 147 | 2.0 | 2.0 | 0.00 | 0.01 | 0.01 | 62 | 1016.0 |
| 20260905190213 | 91 | 164 | 1.0 | 1.0 | 0.00 | 0.01 | 0.01 | 65 | 1016.1 |
| 20260905185712 | 92 | 185 | 1.0 | 2.0 | 0.00 | 0.01 | 0.01 | 64 | 1015.9 |
| 20260905185207 | 92 | 104 | 4.0 | 5.0 | 0.00 | 0.01 | 0.01 | 63 | 1015.9 |
| 20260905184701 | 91 | 195 | 1.0 | 3.0 | 0.00 | 0.01 | 0.01 | 64 | 1016.0 |
| 20260905184200 | 90 | 237 | 2.0 | 2.0 | 0.00 | 0.01 | 0.01 | 66 | 1016.2 |
| 20260905183700 | 90 | 174 | 4.0 | 5.0 | 0.00 | 0.01 | 0.01 | 68 | 1016.0 |
| 20260905183155 | 90 | 151 | 1.0 | 2.0 | 0.00 | 0.01 | 0.01 | 67 | 1016.5 |
| 20260905182655 | 89 | 111 | 1.0 | 1.0 | 0.00 | 0.01 | 0.01 | 65 | 1016.5 |
| 20260905182154 | 90 | 27 | 3.0 | 3.0 | 0.00 | 0.01 | 0.01 | 67 | 1016.6 |
| 20260905181650 | 89 | 160 | 2.0 | 2.0 | 0.00 | 0.01 | 0.01 | 71 | 1016.6 |
| 20260905181149 | 87 | 272 | 2.0 | 2.0 | 0.00 | 0.01 | 0.01 | 70 | 1016.8 |
| 20260905180643 | 88 | 301 | 3.0 | 5.0 | 0.00 | 0.01 | 0.01 | 70 | 1017.0 |
| 20260905180139 | 90 | 71 | 1.0 | 1.0 | 0.00 | 0.01 | 0.01 | 68 | 1016.7 |
| 20260905175638 | 88 | 143 | 0.0 | 0.0 | 0.00 | 0.01 | 0.01 | 70 | 1016.7 |
| 20260905175134 | 89 | 308 | 4.0 | 5.0 | 0.00 | 0.01 | 0.01 | 71 | 1016.9 |
| 20260905174629 | 88 | 223 | 3.0 | 3.0 | 0.00 | 0.01 | 0.01 | 73 | 1016.9 |
| 20260905174125 | 87 | 148 | 0.0 | 1.0 | 0.00 | 0.01 | 0.01 | 72 | 1016.9 |
| 20260905173621 | 88 | 167 | 2.0 | 3.0 | 0.00 | 0.01 | 0.01 | 71 | 1017.0 |
| 20260905173116 | 87 | 190 | 0.0 | 1.0 | 0.00 | 0.01 | 0.01 | 71 | 1016.9 |
| 20260905172615 | 87 | 117 | 3.0 | 3.0 | 0.00 | 0.01 | 0.01 | 72 | 1016.8 |
| 20260905172110 | 86 | 192 | 1.0 | 1.0 | 0.00 | 0.01 | 0.01 | 74 | 1016.9 |
| 20260905171606 | 86 | 156 | 1.0 | 1.0 | 0.00 | 0.01 | 0.01 | 75 | 1016.9 |
| 20260905171102 | 86 | 140 | 2.0 | 2.0 | 0.00 | 0.01 | 0.01 | 76 | 1017.1 |
| 20260905170558 | 85 | 125 | 1.0 | 2.0 | 0.00 | 0.01 | 0.01 | 81 | 1017.3 |
| 20260905170054 | 85 | 167 | 1.0 | 2.0 | 0.00 | 0.01 | 0.01 | 77 | 1017.2 |
| 20260905165548 | 85 | 102 | 3.0 | 3.0 | 0.00 | 0.01 | 0.01 | 80 | 1017.5 |
| 20260905165043 | 84 | 137 | 3.0 | 5.0 | 0.00 | 0.01 | 0.01 | 80 | 1017.6 |
| 20260905164544 | 83 | 132 | 0.0 | 1.0 | 0.00 | 0.01 | 0.01 | 80 | 1017.4 |
| 20260905164038 | 82 | 102 | 1.0 | 1.0 | 0.00 | 0.01 | 0.01 | 85 | 1017.4 |
| 20260905163534 | 81 | 118 | 1.0 | 1.0 | 0.00 | 0.01 | 0.01 | 92 | 1017.7 |
| 20260905163030 | 79 | 147 | 1.0 | 1.0 | 0.00 | 0.01 | 0.01 | 92 | 1017.6 |
| 20260905162527 | 78 | 136 | 1.0 | 2.0 | 0.00 | 0.01 | 0.01 | 94 | 1017.8 |
| 20260905162021 | 77 | 139 | 0.0 | 0.0 | 0.00 | 0.01 | 0.01 | 95 | 1017.8 |
| 20260905161520 | 77 | 139 | 0.0 | 0.0 | 0.00 | 0.01 | 0.01 | 95 | 1017.7 |
| 20260905161018 | 77 | 140 | 0.0 | 0.0 | 0.00 | 0.01 | 0.01 | 96 | 1017.6 |
| 20260905160511 | 78 | 138 | 0.0 | 0.0 | 0.00 | 0.01 | 0.01 | 95 | 1017.9 |
| 20260905160006 | 78 | 122 | 0.0 | 1.0 | 0.00 | 0.01 | 0.01 | 95 | 1018.0 |
| 20260905155506 | 78 | 153 | 0.0 | 1.0 | 0.07 | 0.01 | 0.01 | 92 | 1018.0 |
| 20260905155004 | 80 | 154 | 1.0 | 1.0 | 0.07 | 0.01 | 0.01 | 89 | 1018.0 |
| 20260905154500 | 82 | 183 | 1.0 | 1.0 | 0.00 | 0.00 | 0.00 | 84 | 1018.2 |
| 20260905153955 | 83 | 184 | 3.0 | 3.0 | 0.00 | 0.00 | 0.00 | 79 | 1017.9 |
| 20260905153452 | 85 | 106 | 3.0 | 6.0 | 0.00 | 0.00 | 0.00 | 77 | 1018.0 |
| 20260905152951 | 85 | 73 | 3.0 | 5.0 | 0.00 | 0.00 | 0.00 | 78 | 1017.9 |
| 20260905152451 | 86 | 179 | 1.0 | 2.0 | 0.00 | 0.00 | 0.00 | 76 | 1017.6 |
| 20260905151946 | 85 | 75 | 1.0 | 2.0 | 0.00 | 0.00 | 0.00 | 78 | 1017.5 |
| 20260905151441 | 84 | 128 | 0.0 | 0.0 | 0.00 | 0.00 | 0.00 | 80 | 1017.6 |
| 20260905150936 | 83 | 135 | 0.0 | 0.0 | 0.00 | 0.00 | 0.00 | 80 | 1017.5 |
| 20260905150437 | 83 | 141 | 0.0 | 1.0 | 0.00 | 0.00 | 0.00 | 81 | 1017.6 |
| 20260905145933 | 82 | 171 | 1.0 | 1.0 | 0.00 | 0.00 | 0.00 | 82 | 1017.5 |
| 20260905145433 | 82 | 187 | 1.0 | 1.0 | 0.00 | 0.00 | 0.00 | 83 | 1017.8 |
| 20260905144927 | 82 | 139 | 1.0 | 1.0 | 0.00 | 0.00 | 0.00 | 82 | 1017.8 |
| 20260905144423 | 82 | 157 | 0.0 | 1.0 | 0.00 | 0.00 | 0.00 | 82 | 1017.8 |
| 20260905143921 | 82 | 157 | 2.0 | 2.0 | 0.00 | 0.00 | 0.00 | 84 | 1017.5 |
| 20260905143415 | 81 | 179 | 1.0 | 1.0 | 0.00 | 0.00 | 0.00 | 84 | 1017.6 |
| 20260905142915 | 81 | 152 | 0.0 | 1.0 | 0.00 | 0.00 | 0.00 | 84 | 1017.5 |
| 20260905142414 | 80 | 199 | 3.0 | 3.0 | 0.00 | 0.00 | 0.00 | 84 | 1017.7 |
| 20260905141910 | 79 | 152 | 1.0 | 2.0 | 0.00 | 0.00 | 0.00 | 87 | 1017.4 |
| 20260905141404 | 79 | 168 | 1.0 | 2.0 | 0.00 | 0.00 | 0.00 | 87 | 1017.5 |
| 20260905140901 | 78 | 153 | 1.0 | 1.0 | 0.00 | 0.00 | 0.00 | 88 | 1017.6 |
| 20260905140355 | 78 | 176 | 2.0 | 2.0 | 0.00 | 0.00 | 0.00 | 89 | 1017.6 |
| 20260905135854 | 78 | 148 | 2.0 | 2.0 | 0.00 | 0.00 | 0.00 | 89 | 1017.7 |
| 20260905135350 | 78 | 149 | 1.0 | 2.0 | 0.00 | 0.00 | 0.00 | 88 | 1017.8 |
| 20260905134845 | 78 | 149 | 1.0 | 2.0 | 0.00 | 0.00 | 0.00 | 89 | 1017.7 |
| 20260905134344 | 76 | 200 | 3.0 | 3.0 | 0.00 | 0.00 | 0.00 | 91 | 1017.7 |
| 20260905133838 | 75 | 152 | 1.0 | 1.0 | 0.00 | 0.00 | 0.00 | 94 | 1017.6 |
| 20260905133334 | 75 | 164 | 2.0 | 2.0 | 0.00 | 0.00 | 0.00 | 93 | 1017.7 |
| 20260905132833 | 75 | 147 | 2.0 | 2.0 | 0.00 | 0.00 | 0.00 | 94 | 1018.0 |
| 20260905132329 | 75 | 169 | 2.0 | 2.0 | 0.00 | 0.00 | 0.00 | 94 | 1018.1 |
| 20260905131823 | 74 | 168 | 1.0 | 1.0 | 0.00 | 0.00 | 0.00 | 95 | 1018.0 |
| 20260905131319 | 73 | 156 | 1.0 | 1.0 | 0.00 | 0.00 | 0.00 | 96 | 1018.0 |
| 20260905130814 | 73 | 164 | 2.0 | 2.0 | 0.00 | 0.00 | 0.00 | 96 | 1017.8 |
| 20260905130312 | 73 | 165 | 2.0 | 2.0 | 0.00 | 0.00 | 0.00 | 96 | 1018.0 |
| 20260905125808 | 73 | 153 | 1.0 | 1.0 | 0.00 | 0.00 | 0.00 | 95 | 1018.2 |
| 20260905125305 | 73 | 162 | 1.0 | 1.0 | 0.00 | 0.00 | 0.00 | 96 | 1018.2 |
| 20260905124759 | 72 | 163 | 2.0 | 2.0 | 0.00 | 0.00 | 0.00 | 96 | 1018.1 |
| 20260905124254 | 72 | 160 | 1.0 | 2.0 | 0.00 | 0.00 | 0.00 | 97 | 1018.2 |
| 20260905123749 | 72 | 162 | 2.0 | 2.0 | 0.00 | 0.00 | 0.00 | 97 | 1018.1 |
| 20260905123247 | 72 | 165 | 2.0 | 2.0 | 0.00 | 0.00 | 0.00 | 97 | 1017.8 |
| 20260905122746 | 72 | 158 | 2.0 | 2.0 | 0.00 | 0.00 | 0.00 | 97 | 1017.8 |
| 20260905122240 | 71 | 163 | 2.0 | 2.0 | 0.00 | 0.00 | 0.00 | 98 | 1017.9 |
| 20260905121736 | 71 | 155 | 1.0 | 2.0 | 0.00 | 0.00 | 0.00 | 98 | 1017.9 |
| 20260905121232 | 71 | 160 | 2.0 | 2.0 | 0.00 | 0.00 | 0.00 | 98 | 1018.1 |
| 20260905120730 | 71 | 148 | 1.0 | 2.0 | 0.00 | 0.00 | 0.00 | 98 | 1017.9 |
| 20260905120225 | 71 | 158 | 1.0 | 2.0 | 0.00 | 0.00 | 0.00 | 99 | 1017.9 |
| 20260905115720 | 71 | 148 | 1.0 | 2.0 | 0.00 | 0.00 | 0.00 | 99 | 1017.6 |
| 20260905115220 | 71 | 150 | 1.0 | 1.0 | 0.00 | 0.00 | 0.00 | 99 | 1017.7 |
| 20260905114715 | 71 | 160 | 1.0 | 2.0 | 0.00 | 0.00 | 0.00 | 99 | 1017.5 |
| 20260905114213 | 71 | 156 | 2.0 | 2.0 | 0.00 | 0.00 | 0.00 | 98 | 1017.5 |
| 20260905113713 | 71 | 158 | 1.0 | 2.0 | 0.00 | 0.00 | 0.00 | 98 | 1017.5 |
| 20260905113209 | 71 | 164 | 2.0 | 2.0 | 0.00 | 0.00 | 0.00 | 99 | 1017.5 |
| 20260905112708 | 71 | 157 | 0.0 | 0.0 | 0.00 | 0.00 | 0.00 | 99 | 1017.6 |
| 20260905112204 | 71 | 163 | 1.0 | 1.0 | 0.00 | 0.00 | 0.00 | 99 | 1017.4 |
| 20260905111704 | 71 | 166 | 1.0 | 2.0 | 0.00 | 0.00 | 0.00 | 98 | 1017.3 |
| 20260905111203 | 71 | 163 | 1.0 | 1.0 | 0.00 | 0.00 | 0.00 | 98 | 1017.1 |
| 20260905110703 | 71 | 165 | 1.0 | 1.0 | 0.00 | 0.00 | 0.00 | 98 | 1017.1 |
| 20260905110157 | 71 | 166 | 1.0 | 2.0 | 0.00 | 0.00 | 0.00 | 98 | 1017.2 |
| 20260905105653 | 71 | 165 | 1.0 | 1.0 | 0.00 | 0.00 | 0.00 | 98 | 1016.9 |
| 20260905105151 | 71 | 161 | 1.0 | 2.0 | 0.00 | 0.00 | 0.00 | 97 | 1016.8 |
| 20260905104647 | 71 | 159 | 1.0 | 1.0 | 0.00 | 0.00 | 0.00 | 98 | 1016.6 |
| 20260905104142 | 71 | 154 | 1.0 | 1.0 | 0.00 | 0.00 | 0.00 | 98 | 1016.9 |
| 20260905103638 | 71 | 158 | 1.0 | 1.0 | 0.00 | 0.00 | 0.00 | 97 | 1017.0 |
| 20260905103133 | 71 | 153 | 1.0 | 1.0 | 0.00 | 0.00 | 0.00 | 98 | 1016.6 |
| 20260905102629 | 71 | 157 | 1.0 | 1.0 | 0.00 | 0.00 | 0.00 | 98 | 1016.6 |
| 20260905102126 | 71 | 158 | 0.0 | 0.0 | 0.00 | 0.00 | 0.00 | 99 | 1016.7 |
| 20260905101624 | 71 | 150 | 0.0 | 0.0 | 0.00 | 0.00 | 0.00 | 99 | 1016.6 |
| 20260905101122 | 71 | 158 | 0.0 | 0.0 | 0.00 | 0.00 | 0.00 | 99 | 1016.7 |
| 20260905100618 | 71 | 155 | 0.0 | 0.0 | 0.00 | 0.00 | 0.00 | 98 | 1016.6 |
| 20260905100114 | 71 | 157 | 0.0 | 0.0 | 0.00 | 0.00 | 0.00 | 98 | 1016.7 |
| 20260905095607 | 71 | 152 | 0.0 | 0.0 | 0.00 | 0.00 | 0.00 | 97 | 1016.6 |
| 20260905095102 | 71 | 156 | 0.0 | 0.0 | 0.00 | 0.00 | 0.00 | 97 | 1016.6 |
| 20260905094558 | 72 | 155 | 0.0 | 0.0 | 0.00 | 0.00 | 0.00 | 97 | 1016.5 |
| 20260905094057 | 72 | 158 | 1.0 | 1.0 | 0.00 | 0.00 | 0.00 | 96 | 1016.7 |
| 20260905093557 | 72 | 158 | 1.0 | 1.0 | 0.00 | 0.00 | 0.00 | 96 | 1016.7 |
| 20260905093054 | 72 | 157 | 1.0 | 1.0 | 0.00 | 0.00 | 0.00 | 96 | 1016.7 |
| 20260905092553 | 72 | 158 | 1.0 | 1.0 | 0.00 | 0.00 | 0.00 | 96 | 1016.6 |
| 20260905092049 | 72 | 156 | 1.0 | 1.0 | 0.00 | 0.00 | 0.00 | 96 | 1016.7 |
| 20260905091548 | 72 | 152 | 1.0 | 1.0 | 0.00 | 0.00 | 0.00 | 97 | 1016.6 |
| 20260905091043 | 72 | 159 | 1.0 | 1.0 | 0.00 | 0.00 | 0.00 | 96 | 1016.5 |
| 20260905090542 | 72 | 174 | 2.0 | 2.0 | 0.00 | 0.00 | 0.00 | 96 | 1016.4 |
| 20260905090038 | 72 | 160 | 2.0 | 2.0 | 0.00 | 0.00 | 0.00 | 96 | 1016.6 |
| 20260905085536 | 72 | 152 | 0.0 | 1.0 | 0.00 | 0.00 | 0.00 | 96 | 1016.4 |
| 20260905085033 | 71 | 162 | 3.0 | 3.0 | 0.00 | 0.00 | 0.00 | 97 | 1016.4 |
| 20260905084532 | 71 | 169 | 2.0 | 2.0 | 0.00 | 0.00 | 0.00 | 97 | 1016.5 |
| 20260905084027 | 71 | 160 | 1.0 | 1.0 | 0.00 | 0.00 | 0.00 | 97 | 1016.2 |
| 20260905083522 | 71 | 152 | 2.0 | 2.0 | 0.00 | 0.00 | 0.00 | 97 | 1016.5 |
| 20260905083019 | 71 | 168 | 1.0 | 1.0 | 0.00 | 0.00 | 0.00 | 97 | 1016.1 |
| 20260905082514 | 71 | 159 | 2.0 | 2.0 | 0.00 | 0.00 | 0.00 | 97 | 1016.6 |
| 20260905082009 | 71 | 169 | 2.0 | 2.0 | 0.00 | 0.00 | 0.00 | 97 | 1016.6 |
| 20260905081509 | 71 | 165 | 2.0 | 2.0 | 0.00 | 0.00 | 0.00 | 97 | 1016.5 |
| 20260905081003 | 71 | 165 | 2.0 | 2.0 | 0.00 | 0.00 | 0.00 | 97 | 1016.6 |
| 20260905080458 | 71 | 164 | 2.0 | 2.0 | 0.00 | 0.00 | 0.00 | 97 | 1016.4 |
| 20260905075956 | 71 | 159 | 1.0 | 1.0 | 0.00 | 0.00 | 0.00 | 96 | 1016.5 |
| 20260905075451 | 71 | 162 | 1.0 | 1.0 | 0.00 | 0.00 | 0.00 | 96 | 1016.5 |
| 20260905074950 | 71 | 165 | 1.0 | 1.0 | 0.00 | 0.00 | 0.00 | 96 | 1016.6 |
| 20260905074446 | 71 | 159 | 1.0 | 1.0 | 0.00 | 0.00 | 0.00 | 96 | 1016.8 |
| 20260905073941 | 72 | 154 | 1.0 | 1.0 | 0.00 | 0.00 | 0.00 | 96 | 1016.8 |
| 20260905073436 | 72 | 165 | 1.0 | 1.0 | 0.00 | 0.00 | 0.00 | 96 | 1016.9 |
| 20260905072932 | 72 | 181 | 1.0 | 2.0 | 0.00 | 0.00 | 0.00 | 96 | 1016.7 |
| 20260905072427 | 72 | 161 | 2.0 | 2.0 | 0.00 | 0.00 | 0.00 | 95 | 1016.9 |
| 20260905071923 | 72 | 156 | 1.0 | 2.0 | 0.00 | 0.00 | 0.00 | 95 | 1017.0 |
| 20260905071420 | 72 | 159 | 1.0 | 1.0 | 0.00 | 0.00 | 0.00 | 94 | 1017.1 |
| 20260905070918 | 72 | 160 | 0.0 | 0.0 | 0.00 | 0.00 | 0.00 | 95 | 1017.1 |
| 20260905070415 | 72 | 163 | 0.0 | 0.0 | 0.00 | 0.00 | 0.00 | 95 | 1016.9 |
| 20260905065914 | 72 | 158 | 0.0 | 0.0 | 0.00 | 0.00 | 0.00 | 96 | 1017.1 |
| 20260905065413 | 72 | 160 | 0.0 | 0.0 | 0.00 | 0.00 | 0.00 | 95 | 1017.3 |
| 20260905064908 | 72 | 159 | 0.0 | 0.0 | 0.00 | 0.00 | 0.00 | 96 | 1017.1 |
| 20260905064403 | 72 | 157 | 0.0 | 0.0 | 0.00 | 0.00 | 0.00 | 95 | 1017.2 |
| 20260905063902 | 73 | 152 | 0.0 | 0.0 | 0.00 | 0.00 | 0.00 | 95 | 1017.3 |
| 20260905063352 | 73 | 157 | 0.0 | 0.0 | 0.00 | 0.00 | 0.00 | 94 | 1017.3 |
| 20260905062848 | 73 | 152 | 0.0 | 0.0 | 0.00 | 0.00 | 0.00 | 94 | 1017.3 |
| 20260905062343 | 73 | 161 | 0.0 | 0.0 | 0.00 | 0.00 | 0.00 | 93 | 1017.5 |
| 20260905061837 | 73 | 159 | 0.0 | 0.0 | 0.00 | 0.00 | 0.00 | 92 | 1017.2 |
| 20260905061332 | 73 | 161 | 1.0 | 1.0 | 0.00 | 0.00 | 0.00 | 93 | 1017.7 |
| 20260905060826 | 73 | 158 | 1.0 | 1.0 | 0.00 | 0.00 | 0.00 | 92 | 1017.4 |
| 20260905060323 | 73 | 163 | 0.0 | 0.0 | 0.00 | 0.00 | 0.00 | 93 | 1017.6 |
| 20260905055822 | 73 | 155 | 0.0 | 0.0 | 0.00 | 0.00 | 0.00 | 93 | 1017.5 |
| 20260905055317 | 73 | 159 | 0.0 | 0.0 | 0.00 | 0.00 | 0.00 | 93 | 1017.7 |
| 20260905054817 | 73 | 156 | 0.0 | 0.0 | 0.00 | 0.00 | 0.00 | 93 | 1017.6 |
| 20260905054313 | 73 | 156 | 0.0 | 0.0 | 0.00 | 0.00 | 0.00 | 93 | 1017.7 |
| 20260905053812 | 73 | 156 | 0.0 | 0.0 | 0.00 | 0.00 | 0.00 | 93 | 1017.7 |
| 20260905053308 | 74 | 156 | 0.0 | 0.0 | 0.00 | 0.00 | 0.00 | 93 | 1017.8 |
| 20260905052802 | 74 | 156 | 0.0 | 0.0 | 0.00 | 0.00 | 0.00 | 92 | 1017.7 |
| 20260905052306 | 74 | 157 | 0.0 | 0.0 | 0.00 | 0.00 | 0.00 | 91 | 1017.7 |
| 20260905051802 | 74 | 152 | 0.0 | 0.0 | 0.00 | 0.00 | 0.00 | 91 | 1017.7 |
| 20260905051258 | 75 | 158 | 0.0 | 0.0 | 0.00 | 0.00 | 0.00 | 91 | 1017.7 |
| 20260905050755 | 75 | 149 | 0.0 | 0.0 | 0.00 | 0.00 | 0.00 | 90 | 1017.9 |
| 20260905050250 | 74 | 147 | 0.0 | 0.0 | 0.00 | 0.00 | 0.00 | 91 | 1017.8 |
| 20260905045745 | 74 | 147 | 0.0 | 0.0 | 0.00 | 0.00 | 0.00 | 91 | 1017.8 |
| 20260905045240 | 75 | 159 | 1.0 | 1.0 | 0.00 | 0.00 | 0.00 | 91 | 1017.8 |
| 20260905044736 | 75 | 158 | 1.0 | 1.0 | 0.00 | 0.00 | 0.00 | 90 | 1017.6 |
| 20260905044231 | 75 | 168 | 1.0 | 2.0 | 0.00 | 0.00 | 0.00 | 90 | 1017.8 |
| 20260905043730 | 75 | 155 | 1.0 | 2.0 | 0.00 | 0.00 | 0.00 | 90 | 1017.5 |
| 20260905043230 | 75 | 147 | 2.0 | 2.0 | 0.00 | 0.00 | 0.00 | 89 | 1017.5 |
| 20260905042725 | 75 | 177 | 1.0 | 1.0 | 0.00 | 0.00 | 0.00 | 89 | 1017.9 |
| 20260905042224 | 75 | 165 | 2.0 | 2.0 | 0.00 | 0.00 | 0.00 | 89 | 1017.8 |
| 20260905041720 | 75 | 167 | 1.0 | 1.0 | 0.00 | 0.00 | 0.00 | 89 | 1017.7 |
| 20260905041215 | 75 | 161 | 1.0 | 2.0 | 0.00 | 0.00 | 0.00 | 89 | 1017.6 |
| 20260905040710 | 75 | 159 | 1.0 | 1.0 | 0.00 | 0.00 | 0.00 | 89 | 1017.8 |
| 20260905040208 | 75 | 162 | 1.0 | 2.0 | 0.00 | 0.00 | 0.00 | 89 | 1017.7 |
| 20260905035703 | 75 | 158 | 1.0 | 1.0 | 0.00 | 0.00 | 0.00 | 88 | 1017.8 |
| 20260905035200 | 75 | 169 | 1.0 | 2.0 | 0.00 | 0.00 | 0.00 | 88 | 1017.7 |
| 20260905034656 | 75 | 162 | 1.0 | 2.0 | 0.00 | 0.00 | 0.00 | 88 | 1017.8 |
| 20260905034155 | 75 | 166 | 2.0 | 2.0 | 0.00 | 0.00 | 0.00 | 87 | 1017.8 |
| 20260905033654 | 75 | 167 | 2.0 | 2.0 | 0.00 | 0.00 | 0.00 | 88 | 1017.6 |
| 20260905033150 | 75 | 165 | 2.0 | 2.0 | 0.00 | 0.00 | 0.00 | 89 | 1017.7 |
| 20260905032649 | 75 | 158 | 2.0 | 2.0 | 0.00 | 0.00 | 0.00 | 89 | 1017.7 |
| 20260905032144 | 75 | 151 | 2.0 | 2.0 | 0.00 | 0.00 | 0.00 | 89 | 1017.5 |